TimeCST,TemperatureF,Dew PointF,Humidity,Sea Level PressureIn,VisibilityMPH,Wind Direction,Wind SpeedMPH,Gust SpeedMPH,PrecipitationIn,Events,Conditions,WindDirDegrees,DateUTC
12:13 AM,24.8,24.8,100,29.66,4.0,ESE,5.8,-,N/A,Snow,Light Snow,110,2012-12-18 06:13:00
12:33 AM,24.8,24.8,100,29.66,4.0,ESE,5.8,-,N/A,,Overcast,110,2012-12-18 06:33:00
12:53 AM,24.8,24.8,100,29.64,4.0,East,6.9,-,N/A,,Overcast,100,2012-12-18 06:53:00
1:13 AM,24.8,24.8,100,29.64,4.0,ESE,8.1,-,N/A,,Overcast,110,2012-12-18 07:13:00
1:33 AM,24.8,24.8,100,29.64,3.0,ESE,5.8,-,N/A,,Overcast,120,2012-12-18 07:33:00
1:53 AM,24.8,24.8,100,29.64,3.0,East,8.1,-,N/A,,Overcast,100,2012-12-18 07:53:00
2:13 AM,24.8,24.8,100,29.64,3.0,ESE,8.1,-,N/A,,Overcast,110,2012-12-18 08:13:00
2:33 AM,24.8,24.8,100,29.64,3.0,ESE,6.9,-,N/A,,Overcast,120,2012-12-18 08:33:00
2:53 AM,24.8,24.8,100,29.64,3.0,ESE,6.9,-,N/A,,Overcast,120,2012-12-18 08:53:00
3:13 AM,24.8,24.8,100,29.63,3.0,ESE,6.9,-,N/A,,Overcast,120,2012-12-18 09:13:00
3:33 AM,24.8,24.8,100,29.63,3.0,ESE,6.9,-,N/A,,Overcast,120,2012-12-18 09:33:00
3:53 AM,24.8,24.8,100,29.63,3.0,ESE,6.9,-,N/A,,Overcast,110,2012-12-18 09:53:00
4:13 AM,24.8,24.8,100,29.62,2.5,ESE,5.8,-,N/A,,Overcast,110,2012-12-18 10:13:00
4:33 AM,24.8,24.8,100,29.62,3.0,ESE,6.9,-,N/A,,Overcast,120,2012-12-18 10:33:00
4:53 AM,24.8,24.8,100,29.62,3.0,East,5.8,-,N/A,,Overcast,100,2012-12-18 10:53:00
5:13 AM,24.8,24.8,100,29.62,3.0,East,6.9,-,N/A,,Overcast,100,2012-12-18 11:13:00
5:33 AM,24.8,24.8,100,29.61,3.0,East,6.9,-,N/A,,Overcast,100,2012-12-18 11:33:00
5:53 AM,24.8,24.8,100,29.61,2.5,ESE,8.1,-,N/A,,Overcast,110,2012-12-18 11:53:00
6:13 AM,24.8,24.8,100,29.61,2.5,East,8.1,-,N/A,,Overcast,100,2012-12-18 12:13:00
6:33 AM,24.8,24.8,100,29.61,2.0,East,8.1,-,N/A,,Overcast,100,2012-12-18 12:33:00
6:53 AM,24.8,24.8,100,29.62,2.0,ESE,6.9,-,N/A,,Overcast,110,2012-12-18 12:53:00
7:13 AM,24.8,24.8,100,29.62,2.0,ESE,6.9,-,N/A,,Overcast,120,2012-12-18 13:13:00
7:33 AM,24.8,24.8,100,29.62,2.0,East,6.9,-,N/A,,Overcast,100,2012-12-18 13:33:00
7:53 AM,24.8,24.8,100,29.62,2.0,East,5.8,-,N/A,,Overcast,100,2012-12-18 13:53:00
8:13 AM,24.8,24.8,100,29.63,1.5,East,6.9,-,N/A,,Overcast,100,2012-12-18 14:13:00
8:33 AM,24.8,24.8,100,29.63,1.8,East,4.6,-,N/A,,Overcast,80,2012-12-18 14:33:00
8:53 AM,24.8,24.8,100,29.64,1.5,East,3.5,-,N/A,,Overcast,80,2012-12-18 14:53:00
9:13 AM,24.8,24.8,100,29.65,1.5,Calm,Calm,-,N/A,,Overcast,0,2012-12-18 15:13:00
9:33 AM,24.8,24.8,100,29.66,1.2,East,3.5,-,N/A,,Overcast,100,2012-12-18 15:33:00
9:53 AM,24.8,24.8,100,29.66,1.5,SE,4.6,-,N/A,,Overcast,130,2012-12-18 15:53:00
10:13 AM,24.8,24.8,100,29.66,1.2,East,5.8,-,N/A,,Overcast,100,2012-12-18 16:13:00
10:33 AM,24.8,24.8,100,29.67,1.0,ESE,4.6,-,N/A,,Overcast,110,2012-12-18 16:33:00
10:53 AM,24.8,24.8,100,29.66,2.0,ESE,5.8,-,N/A,,Overcast,110,2012-12-18 16:53:00
11:13 AM,24.8,24.8,100,29.66,1.5,ESE,5.8,-,N/A,,Overcast,120,2012-12-18 17:13:00
11:33 AM,24.8,24.8,100,29.66,1.5,SE,4.6,-,N/A,,Overcast,130,2012-12-18 17:33:00
11:53 AM,24.8,24.8,100,29.67,1.8,Calm,Calm,-,N/A,,Overcast,0,2012-12-18 17:53:00
12:13 PM,24.8,24.8,100,29.67,2.5,Calm,Calm,-,N/A,,Overcast,0,2012-12-18 18:13:00
12:33 PM,24.8,24.8,100,29.66,2.5,Calm,Calm,-,N/A,,Overcast,0,2012-12-18 18:33:00
12:53 PM,24.8,24.8,100,29.66,2.0,Calm,Calm,-,N/A,,Overcast,0,2012-12-18 18:53:00
1:13 PM,24.8,24.8,100,29.66,2.5,Calm,Calm,-,N/A,,Overcast,0,2012-12-18 19:13:00
1:33 PM,26.6,26.6,100,29.66,2.0,Calm,Calm,-,N/A,,Overcast,0,2012-12-18 19:33:00
1:53 PM,24.8,24.8,100,29.67,2.5,Calm,Calm,-,N/A,,Overcast,0,2012-12-18 19:53:00
2:13 PM,24.8,24.8,100,29.67,3.0,Calm,Calm,-,N/A,,Overcast,0,2012-12-18 20:13:00
2:33 PM,24.8,24.8,100,29.67,3.0,Calm,Calm,-,N/A,,Overcast,0,2012-12-18 20:33:00
2:53 PM,24.8,24.8,100,29.68,3.0,Calm,Calm,-,N/A,,Overcast,0,2012-12-18 20:53:00
3:13 PM,26.6,26.6,100,29.69,2.5,Calm,Calm,-,N/A,,Overcast,0,2012-12-18 21:13:00
3:33 PM,26.6,26.6,100,29.69,2.5,Calm,Calm,-,N/A,,Mist,0,2012-12-18 21:33:00
3:53 PM,26.6,26.6,100,29.70,2.5,Calm,Calm,-,N/A,,Overcast,0,2012-12-18 21:53:00
4:13 PM,24.8,24.8,100,29.70,2.5,East,3.5,-,N/A,,Overcast,100,2012-12-18 22:13:00
4:33 PM,24.8,24.8,100,29.70,2.5,Calm,Calm,-,N/A,,Overcast,0,2012-12-18 22:33:00
4:53 PM,24.8,24.8,100,29.71,3.0,Calm,Calm,-,N/A,,Overcast,0,2012-12-18 22:53:00
5:13 PM,24.8,24.8,100,29.72,3.0,Calm,Calm,-,N/A,,Overcast,0,2012-12-18 23:13:00
5:33 PM,24.8,24.8,100,29.72,3.0,ESE,3.5,-,N/A,,Overcast,120,2012-12-18 23:33:00
5:53 PM,24.8,24.8,100,29.73,4.0,SSE,3.5,-,N/A,,Overcast,150,2012-12-18 23:53:00
6:13 PM,24.8,24.8,100,29.73,3.0,SE,4.6,-,N/A,,Overcast,130,2012-12-19 00:13:00
6:33 PM,24.8,24.8,100,29.74,3.0,SSW,3.5,-,N/A,,Overcast,200,2012-12-19 00:33:00
6:53 PM,24.8,24.8,100,29.74,3.0,South,4.6,-,N/A,,Overcast,190,2012-12-19 00:53:00
7:13 PM,24.8,24.8,100,29.75,4.0,SE,4.6,-,N/A,,Overcast,140,2012-12-19 01:13:00
7:34 PM,24.8,24.8,100,29.76,3.0,SSE,3.5,-,N/A,Snow,Light Snow,150,2012-12-19 01:34:00
7:53 PM,26.6,26.6,100,29.76,2.0,SE,3.5,-,N/A,Snow,Snow,140,2012-12-19 01:53:00
8:13 PM,26.6,26.6,100,29.76,1.8,SE,3.5,-,N/A,Snow,Light Snow,140,2012-12-19 02:13:00
8:34 PM,26.6,26.6,100,29.77,2.5,SSE,3.5,-,N/A,Snow,Light Snow,160,2012-12-19 02:34:00
8:53 PM,26.6,26.6,100,29.76,3.0,Calm,Calm,-,N/A,,Overcast,0,2012-12-19 02:53:00
9:13 PM,26.6,26.6,100,29.76,3.0,SSE,3.5,-,N/A,,Overcast,150,2012-12-19 03:13:00
9:34 PM,26.6,26.6,100,29.76,3.0,Calm,Calm,-,N/A,,Overcast,0,2012-12-19 03:34:00
9:53 PM,26.6,26.6,100,29.76,3.0,Calm,Calm,-,N/A,,Overcast,0,2012-12-19 03:53:00
10:13 PM,26.6,26.6,100,29.77,3.0,SSE,4.6,-,N/A,,Overcast,160,2012-12-19 04:13:00
10:34 PM,26.6,26.6,100,29.78,3.0,Calm,Calm,-,N/A,,Overcast,0,2012-12-19 04:34:00
10:53 PM,28.4,28.4,100,29.78,3.0,Calm,Calm,-,N/A,,Overcast,0,2012-12-19 04:53:00
11:13 PM,28.4,28.4,100,29.79,3.0,Calm,Calm,-,N/A,,Overcast,0,2012-12-19 05:13:00
11:33 PM,28.4,28.4,100,29.78,4.0,SW,3.5,-,N/A,,Overcast,220,2012-12-19 05:33:00
11:53 PM,28.4,28.4,100,29.79,5.0,SW,3.5,-,N/A,,Overcast,220,2012-12-19 05:53:00